Flag for U.S.A. Weather past 2 weeks in Sedona, Arizona, U.S.A.

Now
73 °F

Passing clouds.


Feels Like: 77 °F
Forecast: 73 / 94 °F
Wind: No wind

Location: Sedona Airport

Current Time: Jul 25, 2014 at 4:42:37 AM

Latest Report: Jul 25, 2014 at 4:15 AM


Visibility: 7 mi

Pressure: 30.15 "Hg

Humidity: 41%

Dew point: 48 °F

Location of SedonaLocation

Historic Weather in Sedona — Graph

°F

Sedona temperature yesterday

Maximum temperature yesterday: 100 °F (at 1:55 PM)
Minimum temperature yesterday: 73 °F (at 7:55 AM)
Average temperature yesterday: 84 °F

Past Weeks' High & Low Weather Summary

 TemperatureHumidityPressure
High100 °F (Jul 24, 1:55 PM)78% (Jul 14, 3:15 AM)30.29 "Hg (Jul 14, 3:15 AM)
Low68 °F (Jul 10, 5:15 AM)12% (Jul 18, 1:15 PM)30.02 "Hg (Jul 17, 5:15 PM)
Average80 °F35%30.16 "Hg
* Reported Jul 10 3:15 AM — Jul 25 3:55 AM, Sedona, Weather by CustomWeather, © 2014

Note: Actual official high and low records may vary slightly from our data, if they occured in-between our weather recording intervals... More about our weather records

Advertising

Sedona weather history for previous 24 hours

 ConditionsComfort  
Time TempWeatherWind HumidityBarometerVisibility
3:55 AM
Jul 25
72 °FPassing clouds.No wind44%30.15 "Hg10 mi
3:35 AM73 °FClear.No wind38%30.14 "Hg10 mi
3:15 AM73 °FClear.9 mph38%30.13 "Hg10 mi
2:55 AM75 °FClear.12 mph36%30.12 "Hg10 mi
2:35 AM75 °FClear.14 mph36%30.12 "Hg10 mi
2:15 AM75 °FClear.10 mph36%30.12 "Hg10 mi
1:55 AM75 °FClear.12 mph36%30.13 "Hg10 mi
1:35 AM75 °FClear.13 mph36%30.13 "Hg10 mi
1:15 AM77 °FClear.10 mph34%30.14 "Hg10 mi
12:55 AM77 °FClear.10 mph36%30.15 "Hg10 mi
12:35 AM77 °FClear.13 mph36%30.15 "Hg10 mi
12:15 AM77 °FClear.12 mph39%30.15 "Hg10 mi
11:55 PM
Jul 24
77 °FClear.12 mph39%30.15 "Hg10 mi
11:15 PM79 °FClear.10 mph37%30.15 "Hg10 mi
10:55 PM79 °FClear.10 mph37%30.14 "Hg10 mi
10:35 PM79 °FClear.9 mph37%30.14 "Hg10 mi
10:15 PM81 °FClear.7 mph34%30.14 "Hg10 mi
9:55 PM81 °FClear.8 mph37%30.15 "Hg10 mi
9:35 PM81 °FClear.7 mph37%30.15 "Hg10 mi
9:15 PM81 °FClear.7 mph34%30.14 "Hg10 mi
8:55 PM81 °FClear.5 mph37%30.13 "Hg10 mi
8:35 PM82 °FClear.8 mph35%30.13 "Hg10 mi
8:15 PM82 °FClear.6 mph35%30.13 "Hg10 mi
7:55 PM82 °FClear.5 mph35%30.12 "Hg10 mi
7:35 PM82 °FClear.6 mph35%30.12 "Hg10 mi
7:15 PM84 °FSunny.10 mph33%30.11 "Hg10 mi
6:55 PM84 °FSunny.3 mph31%30.10 "Hg10 mi
6:35 PM86 °FScattered clouds.7 mph31%30.11 "Hg10 mi
6:15 PM86 °FPartly sunny.13 mph31%30.11 "Hg10 mi
5:55 PM88 °FOvercast.10 mph29%30.10 "Hg10 mi
5:15 PM88 °FSunny.9 mph27%30.09 "Hg10 mi
4:55 PM86 °FThundershowers. Sunny.16 mph29%30.08 "Hg10 mi
4:35 PM88 °FScattered clouds.29 mph29%30.08 "Hg10 mi
4:15 PM90 °FThundershowers. Scattered clouds.21 mph26%30.08 "Hg10 mi
3:55 PM93 °FScattered clouds.12 mph19%30.08 "Hg10 mi
3:15 PM95 °FPartly sunny.3 mph19%30.09 "Hg10 mi
2:55 PM95 °FSunny.3 mph19%30.10 "Hg10 mi
2:35 PM99 °FScattered clouds.8 mph16%30.11 "Hg10 mi
2:15 PM95 °FScattered clouds.13 mph18%30.11 "Hg10 mi
1:55 PM100 °FSunny.6 mph15%30.12 "Hg10 mi
1:15 PM99 °FSunny.9 mph17%30.14 "Hg10 mi
12:55 PM97 °FSunny.7 mph18%30.15 "Hg10 mi
12:35 PM95 °FSunny.5 mph20%30.16 "Hg10 mi
12:15 PM97 °FSunny.8 mph20%30.16 "Hg10 mi
11:55 AM93 °FSunny.3 mph21%30.17 "Hg10 mi
11:35 AM93 °FScattered clouds.12 mph21%30.17 "Hg10 mi
11:15 AM93 °FScattered clouds.9 mph24%30.19 "Hg10 mi
10:55 AM91 °FScattered clouds.5 mph26%30.20 "Hg10 mi
10:35 AM95 °FScattered clouds.7 mph23%30.21 "Hg10 mi
10:15 AM90 °FScattered clouds.5 mph27%30.22 "Hg10 mi
9:55 AM88 °FScattered clouds.No wind31%30.22 "Hg10 mi
9:35 AM86 °FScattered clouds.5 mph33%30.22 "Hg10 mi
9:15 AM82 °FScattered clouds.5 mph40%30.23 "Hg10 mi
8:55 AM77 °FScattered clouds.8 mph54%30.22 "Hg10 mi
8:35 AM75 °FScattered clouds.13 mph61%30.23 "Hg10 mi
8:15 AM73 °FScattered clouds.12 mph65%30.22 "Hg10 mi
7:55 AM73 °FLight rain. Cloudy.12 mph65%30.22 "Hg5 mi
7:15 AM79 °FLight rain. More clouds than sun.7 mph42%30.21 "Hg10 mi
6:35 AM77 °FLight rain. More clouds than sun.5 mph47%30.21 "Hg10 mi
6:15 AM79 °FOvercast.5 mph42%30.20 "Hg10 mi
5:55 AM79 °FOvercast.No wind42%30.20 "Hg10 mi
5:35 AM79 °FOvercast.3 mph42%30.20 "Hg10 mi
5:15 AM79 °FOvercast.6 mph42%30.19 "Hg10 mi
4:55 AM79 °FOvercast.6 mph42%30.19 "Hg10 mi
4:35 AM79 °FOvercast.6 mph42%30.19 "Hg10 mi
4:15 AM79 °FPassing clouds.No wind42%30.19 "Hg10 mi
Weather by CustomWeather, © 2014

See weather overviewHow to use our weather pages